Location: Unspecified
(0.0000°N, 0.0000°E)
Time: 11:47:52
(UTC+00:00)

HEATHSAT - Pass Details

Date: 13 June 2023
Orbit: 779 x 793 km, 98.8° (Epoch: 22 September)

Event Time Altitude Azimuth Distance (km) Brightness Sun altitude
Exits shadow 20:03:50 15° 26° (NNE) 2,019 9.7 -28.2°
Drops below altitude 10° 20:04:50 10° 19° (NNE) 2,340 10.2 -28.4°
Sets 20:07:22 0° 8° (N) 3,245 11.1 -29.0°
